Theta_e
312 312 312 312 313 313 314 314 314 314 314 314 314 314 315 315 316 304 299 308 312 317 318 313 311 305 309 311 317 319 304 300 302 303 305 311 308 316 319 318 321 323 322 324 328
313 312 312 312 312 313 314 314 314 313 314 313 314 314 315 314 309 298 310 315 316 316 306 305 306 307 301 306 312 310 303 303 309 309 307 310 309 311 314 314 315 321 323 325 326
312 312 313 313 313 313 314 314 314 314 313 313 313 314 314 312 302 295 313 314 316 316 306 305 307 305 300 300 304 308 303 308 309 311 313 311 309 313 310 309 313 316 322 322 322
314 314 314 314 314 314 314 314 314 314 313 313 313 314 316 306 287 299 312 313 316 311 304 303 303 300 297 295 300 297 305 307 309 311 310 310 313 310 310 310 316 321 323 323 321
315 315 315 315 315 315 315 314 314 314 313 313 313 314 310 295 294 304 314 311 306 305 302 299 301 300 296 297 299 296 299 303 306 309 308 311 309 309 309 313 315 320 321 322 322
315 314 314 314 314 314 314 314 314 313 313 313 313 313 302 288 303 305 305 305 304 303 301 301 299 301 296 296 295 298 297 298 301 303 307 306 307 309 311 315 313 313 317 322 323
315 314 314 314 314 314 314 313 312 312 312 313 313 308 297 293 304 306 305 303 304 302 298 304 304 298 297 294 299 297 293 296 297 299 302 306 301 303 310 313 312 312 312 316 323
314 314 313 313 313 313 313 312 311 311 312 313 312 306 292 304 304 304 305 303 305 305 304 307 307 302 298 298 295 291 291 285 293 297 298 302 292 302 309 310 310 312 312 314 317
314 314 313 313 313 312 311 311 310 310 309 311 307 302 291 306 300 303 304 300 303 303 306 306 305 299 296 289 286 288 282 285 289 295 295 294 290 301 306 305 306 311 312 312 316
314 314 313 313 311 311 310 310 309 307 308 304 303 297 297 294 300 302 304 304 301 301 300 299 296 291 291 288 279 282 282 285 284 290 291 290 291 297 301 302 303 306 310 312 312
314 314 313 311 309 310 308 306 300 299 299 293 293 293 295 300 304 300 303 301 300 297 288 294 288 284 286 288 288 287 285 283 287 289 287 287 288 292 296 298 299 303 305 309 313
314 313 312 309 309 310 308 298 298 299 293 296 295 296 298 299 293 297 303 294 293 287 291 287 283 288 290 289 288 287 285 284 288 291 288 287 286 290 293 295 298 300 303 306 310
314 313 310 308 308 307 301 300 306 305 293 291 293 293 294 296 291 293 298 295 290 288 287 284 286 290 288 287 286 286 284 285 284 288 290 286 283 286 290 293 297 299 302 306 308
313 312 308 308 304 303 299 304 307 306 288 287 290 294 295 295 291 298 299 295 292 287 288 286 291 289 288 287 288 282 289 288 286 283 275 286 273 283 286 288 292 295 298 301 305
313 310 307 305 303 299 301 306 306 301 277 287 289 298 296 291 291 293 299 295 288 287 288 284 287 286 286 287 290 285 290 288 287 283 282 282 276 280 287 287 289 294 297 299 304
310 308 306 306 305 303 306 304 300 286 275 280 289 287 287 291 290 293 293 296 295 288 289 288 292 290 289 291 291 292 288 287 287 283 274 280 278 277 283 286 289 292 297 299 301
308 306 306 305 300 305 303 298 285 279 284 279 281 286 285 285 287 288 287 286 282 277 278 283 286 291 293 288 289 289 284 275 268 275 269 284 281 280 287 290 290 291 294 296 300
306 306 303 302 304 304 300 288 277 274 276 285 285 284 282 284 285 285 285 282 287 284 278 276 273 285 289 285 282 284 283 277 269 266 273 283 275 283 292 294 297 300 300 301 302
307 305 303 301 303 302 294 281 280 279 281 282 284 277 279 283 283 283 283 282 286 285 277 277 277 286 287 290 289 284 279 287 278 277 275 277 283 289 293 293 294 293 296 297 298
302 301 299 301 302 299 285 282 279 286 286 285 277 277 273 276 279 280 280 285 284 289 287 282 275 284 287 288 291 287 289 279 281 271 270 274 278 283 287 289 290 290 291 293 296
301 294 298 300 299 289 282 281 281 288 289 284 277 275 277 274 278 278 277 284 287 286 287 284 281 279 284 283 283 283 282 284 284 281 275 273 275 290 289 290 289 289 290 292 294
297 285 298 299 286 283 282 281 287 287 289 287 286 283 277 278 279 278 278 283 288 287 278 285 281 274 278 285 288 287 285 283 278 276 280 278 278 293 292 292 290 289 289 291 293
294 292 298 297 282 282 281 284 286 285 285 285 283 285 285 278 272 278 281 288 288 285 281 283 277 271 275 284 287 283 284 285 284 284 278 276 280 292 292 289 289 288 288 290 291
293 283 287 291 289 285 280 281 281 288 286 287 285 287 283 280 282 276 280 285 287 285 287 286 279 273 272 276 280 278 281 283 283 279 276 278 280 285 286 285 286 286 287 289 289
294 286 285 281 283 285 285 283 281 279 285 286 282 284 281 271 276 273 280 282 284 286 286 283 274 276 278 280 281 280 281 283 283 281 276 279 279 284 284 284 285 285 286 287 287
287 285 284 283 285 285 284 281 281 281 282 281 280 284 284 276 278 271 278 279 279 283 281 282 275 278 275 280 283 281 284 284 285 282 280 280 281 287 287 288 285 285 285 285 285
291 291 293 285 285 284 283 282 282 284 284 285 284 283 281 282 284 285 286 284 283 279 279 278 278 274 270 279 280 276 282 282 284 283 281 276 280 284 285 286 284 284 285 284 284
Wind_Speed
6 8 9 10 10 11 12 13 14 14 15 16 17 18 19 21 16 14 13 9 12 19 21 12 10 6 7 6 8 7 5 11 16 14 13 8 10 8 4 4 2 4 4 5 15
7 8 8 9 10 11 12 14 15 15 16 16 18 18 18 18 8 13 8 16 17 16 14 12 10 10 5 8 6 8 9 14 13 12 12 10 12 7 4 7 7 6 9 9 15
6 7 8 10 11 11 13 14 14 16 17 18 18 20 19 11 4 8 15 19 18 16 10 11 9 8 7 8 10 9 15 13 16 14 14 13 11 6 6 7 7 9 12 15 13
7 8 8 10 11 12 13 14 15 16 17 18 20 20 22 5 3 7 13 17 21 13 9 10 8 4 5 7 9 19 16 15 13 13 16 14 15 12 8 9 4 6 4 18 16
8 9 10 10 11 12 13 14 15 16 16 17 19 20 12 6 6 9 9 13 13 13 10 10 7 7 6 9 12 14 13 15 15 11 13 15 16 15 15 11 9 7 4 14 14
7 8 9 10 12 13 13 14 16 17 17 16 15 19 4 8 5 10 8 8 10 10 12 9 7 9 8 9 9 13 16 16 13 14 12 16 18 17 16 15 15 10 9 12 13
8 8 9 10 11 12 13 15 16 18 15 11 11 7 4 7 7 8 9 8 4 7 8 8 8 7 10 9 8 12 15 15 15 14 12 11 26 27 15 17 18 17 12 10 15
8 8 8 9 10 12 13 15 16 12 10 8 8 6 4 1 7 10 11 10 11 5 4 5 6 8 5 6 7 9 9 6 4 14 14 11 28 6 20 23 23 19 15 13 12
7 7 8 9 10 12 15 15 11 8 7 7 5 5 4 6 14 10 11 11 12 6 6 4 3 4 6 6 7 7 5 11 11 8 9 21 19 12 14 17 18 22 21 13 16
6 6 7 7 10 14 14 11 6 8 8 3 3 3 4 11 12 10 8 10 5 10 4 4 2 6 7 4 5 13 15 15 15 13 21 20 20 14 10 15 20 17 14 18 15
6 6 5 6 9 16 10 3 3 1 7 4 4 4 7 12 4 6 8 11 7 9 6 4 4 7 11 10 13 13 13 14 14 15 18 20 23 19 17 20 19 17 12 14 18
4 3 2 6 9 16 5 5 4 1 3 1 3 2 3 7 6 10 12 9 8 9 7 6 6 11 9 10 11 12 15 14 13 10 13 16 26 21 19 24 21 19 17 14 14
2 1 1 5 8 4 9 7 3 3 4 3 3 3 5 8 6 7 10 10 7 8 10 7 10 9 10 12 14 11 15 14 17 15 12 15 27 23 21 25 22 23 17 16 15
3 2 1 6 3 2 4 4 4 3 2 5 2 2 5 5 3 5 7 5 5 8 10 7 5 9 12 13 11 11 8 12 14 12 4 7 14 16 20 19 22 25 22 19 16
6 3 2 2 3 2 3 3 3 4 2 5 4 4 9 4 6 3 3 3 7 10 4 8 9 12 13 9 8 8 10 13 14 12 12 10 8 5 5 9 14 14 17 24 18
7 4 2 2 3 2 4 3 3 1 1 5 4 8 9 1 6 4 6 5 6 9 7 14 13 13 8 10 12 16 13 15 14 8 6 15 10 6 5 10 13 18 14 22 22
9 6 2 2 2 3 3 3 3 4 0 6 4 8 9 6 5 8 8 7 4 7 8 15 8 2 1 11 10 6 9 5 5 3 7 7 6 16 24 24 20 19 15 11 14
10 3 5 4 3 3 2 2 5 1 2 2 3 7 4 9 6 12 7 5 6 8 7 7 9 9 17 13 11 15 0 6 6 3 13 12 9 9 14 12 7 7 11 13 14
10 2 2 3 4 2 1 4 2 2 1 4 3 2 1 4 6 8 6 4 5 7 5 6 6 22 20 6 2 5 4 6 6 10 7 5 8 10 15 17 20 20 20 15 14
3 3 2 4 4 2 4 1 3 2 2 1 2 1 3 5 6 7 4 4 6 3 8 4 13 10 10 15 5 4 6 4 2 6 6 5 11 5 18 21 24 22 19 17 16
2 1 2 3 1 5 2 3 3 4 2 0 1 1 3 3 3 4 5 6 3 7 8 11 5 11 11 4 6 3 3 2 5 4 4 6 6 6 11 14 19 22 20 17 16
3 1 2 3 4 2 2 4 3 5 3 2 1 4 1 3 5 4 3 3 9 10 6 5 5 7 15 22 11 4 4 8 5 5 6 8 8 2 14 18 19 19 19 18 13
4 2 1 3 3 3 1 2 3 4 3 4 3 3 4 2 3 4 5 4 3 8 5 7 4 7 9 3 2 5 15 10 13 10 8 6 7 15 15 21 19 16 15 12 7
4 3 2 2 0 4 4 3 2 4 3 4 1 5 4 4 6 5 4 5 2 12 3 2 5 5 8 15 17 17 22 20 13 5 11 10 17 22 16 22 23 20 11 9 5
1 3 2 4 4 4 4 6 4 5 4 5 2 8 5 2 4 5 5 6 6 1 2 6 8 8 15 19 19 21 20 18 8 4 6 16 20 16 22 20 16 16 9 4 3
6 5 2 3 2 7 4 6 8 3 7 5 5 3 9 7 6 3 1 1 6 2 6 5 6 11 16 9 5 13 12 13 4 6 9 18 13 19 22 13 16 15 9 7 8
2 2 3 4 3 5 6 6 8 8 6 3 5 6 7 6 4 8 7 5 7 6 4 4 5 5 7 13 17 1 3 8 9 6 8 9 15 16 22 13 19 16 10 9 10
Wind_Direction
27 24 20 16 9 6 4 1 359 356 351 351 349 345 342 335 320 41 38 336 328 324 314 324 315 269 255 255 248 279 250 245 241 249 270 304 287 153 104 287 224 136 63 90 129
18 15 9 4 2 359 359 359 355 352 350 348 345 341 337 332 291 46 360 347 338 332 326 339 334 326 288 258 222 211 226 245 263 261 253 257 268 213 153 223 254 162 102 128 134
10 2 356 350 348 349 350 352 352 350 347 344 341 337 334 320 248 19 1 345 334 316 313 306 304 293 262 247 254 226 238 262 272 270 284 293 262 269 239 225 246 219 164 149 153
347 337 338 335 336 340 340 345 345 345 344 340 336 334 324 262 39 4 358 341 321 328 339 340 319 293 280 267 235 258 268 260 264 291 296 296 303 284 259 232 257 5 31 156 170
326 323 326 325 327 331 334 337 337 338 340 336 332 327 322 70 27 332 340 335 332 344 357 352 358 354 311 330 327 291 277 268 275 270 282 293 272 279 274 277 240 176 192 176 179
334 332 330 327 328 329 332 331 331 333 333 330 327 320 267 58 343 344 322 330 344 344 349 7 354 331 284 289 287 317 311 302 305 308 291 282 285 279 262 270 273 264 192 180 194
325 325 324 326 324 327 327 328 330 330 332 330 330 310 38 28 334 322 355 334 332 331 330 345 335 325 338 300 330 314 304 297 277 271 260 281 268 252 260 274 269 251 240 195 198
312 313 322 320 326 327 324 324 326 326 330 325 310 305 56 356 319 1 349 342 345 320 304 305 316 294 260 291 302 283 276 281 305 234 241 226 251 247 228 239 250 253 249 191 214
311 319 316 322 329 326 322 320 311 309 307 293 281 332 39 316 2 344 327 345 327 320 295 278 274 275 308 266 288 228 267 286 295 284 260 217 270 240 264 274 254 236 239 225 205
324 313 312 326 336 332 321 307 308 292 238 243 249 250 51 350 333 318 343 332 317 298 280 273 312 286 255 277 311 312 312 308 307 312 315 298 290 281 263 260 265 263 245 232 223
310 322 309 335 339 336 322 242 299 125 46 35 357 336 355 342 294 306 352 308 334 325 6 327 323 332 10 337 318 304 295 292 291 290 289 289 289 286 293 288 286 285 288 272 233
292 295 326 342 341 323 304 56 53 335 307 41 324 285 330 348 305 2 358 358 328 345 334 343 274 351 333 300 301 293 287 287 287 285 282 291 281 282 267 269 263 266 270 273 278
242 211 354 331 336 320 65 52 336 307 264 79 2 330 338 323 340 324 353 332 334 324 349 316 283 333 324 314 311 308 296 303 300 312 287 294 283 263 252 250 259 262 261 260 257
162 129 339 336 318 333 66 352 310 298 82 354 357 62 308 329 245 22 358 339 314 326 334 281 274 305 323 308 308 299 305 313 304 312 294 350 289 292 285 274 238 246 249 249 252
132 116 5 360 329 43 6 314 304 249 63 1 338 331 308 353 305 96 324 288 297 320 313 275 317 312 307 296 320 268 309 304 290 284 294 263 265 269 340 275 281 241 242 238 234
125 118 46 233 84 20 307 297 255 33 11 334 310 347 354 210 357 308 333 151 240 300 261 261 271 263 253 309 289 271 301 293 269 257 256 253 208 308 238 247 255 254 247 230 225
117 76 25 12 50 316 310 245 30 66 294 325 335 343 322 333 330 7 329 51 31 348 357 314 328 90 26 312 324 21 318 302 338 189 229 257 243 246 288 282 285 294 296 281 223
130 130 43 60 349 322 259 7 58 240 282 354 309 327 349 3 348 342 356 2 77 18 295 337 323 335 349 320 289 303 14 286 294 287 289 289 244 245 239 289 312 352 347 340 334
152 109 114 32 335 294 355 45 180 157 196 341 308 318 360 1 340 348 344 358 37 43 22 310 268 321 299 287 53 337 263 298 270 253 257 238 277 287 28 1 348 339 332 328 325
159 178 81 343 337 267 73 224 180 132 169 330 23 51 322 354 339 360 315 5 357 6 6 297 296 279 307 323 37 202 320 292 265 300 299 292 295 348 355 338 330 323 317 309 314
154 142 64 356 292 48 143 217 226 189 154 98 65 324 268 325 324 327 295 287 14 332 339 308 243 293 306 280 318 345 290 298 271 255 281 300 289 26 333 326 322 316 308 303 299
127 116 18 309 60 54 163 193 240 152 176 218 306 193 258 345 291 274 289 287 14 356 324 334 296 282 282 289 268 120 267 326 269 304 272 263 278 53 349 331 323 316 308 297 297
132 131 164 293 160 180 246 257 224 165 189 198 180 223 161 276 312 247 265 285 15 342 1 341 278 308 320 19 101 333 315 311 296 272 253 273 285 359 334 334 332 319 311 305 304
135 135 355 330 167 157 157 204 223 211 225 193 205 206 222 264 241 279 316 314 328 313 146 249 266 222 265 286 309 297 302 308 299 299 314 265 325 323 334 331 331 326 311 314 340
127 188 190 178 238 191 176 155 169 190 222 180 277 214 186 241 232 222 246 267 306 48 226 347 274 273 270 274 281 282 286 298 308 337 305 311 303 306 332 318 319 314 316 338 19
139 148 221 154 234 144 186 212 192 185 167 201 209 228 206 197 207 244 39 340 256 291 352 307 283 313 299 281 284 300 303 327 313 330 320 320 319 341 315 317 336 341 346 27 40
107 71 132 148 170 150 202 198 207 151 221 260 188 248 261 263 263 257 257 263 263 287 311 284 292 339 275 327 314 250 315 328 320 25 316 340 312 323 334 354 358 349 5 36 55